Missoula, MT

5:42 AM MDT on August 27, 2016 (GMT -0600)
Missoula International

Weather History for KMSO - July, 2013

Change the Weather History Date:

Sunday, July 14, 2013

  Actual Average Record
Temperature  
Mean Temperature 68 °F 69 °F  
Max Temperature 89 °F 86 °F 103 °F (2007)
Min Temperature 47 °F 52 °F 30 °F (1901)
Degree Days  
Heating Degree Days 0 1  
Month to date heating degree days 0 25  
Since 1 June heating degree days 141 185  
Since 1 July heating degree days 0 25  
Cooling Degree Days 3 5  
Month to date cooling degree days 104 54  
Year to date cooling degree days 151 97  
Since 1 June cooling degree days 147 91  
Growing Degree Days 18 (Base 50)    
Moisture  
Dew Point 35 °F    
Average Humidity 41    
Maximum Humidity 71    
Minimum Humidity 11    
Precipitation  
Precipitation 0.00 in 0.03 in 0.62 in (1963)
Month to date precipitation 0.09 0.52  
Year to date precipitation 5.90 8.37  
Snow  
Snow 0.00 in - - ()
Month to date snowfall 0.0  
Year to date snowfall 27.4  
Since 1 July snowfall 0.0  
Snow Depth 0.00 in    
Sea Level Pressure  
Sea Level Pressure 30.04 in    
Wind  
Wind Speed 2 mph (NNW)    
Max Wind Speed 15 mph    
Max Gust Speed 24 mph    
Visibility 10 miles    
Events      
T = Trace of Precipitation, MM = Missing Value Source: NWS Daily Summary

Daily Weather History Graph

Daily Weather History Graph

Search for Another Location

Airport or City:

Trip Planner

Search our weather history database for the weather conditions in past years. The results will help you decide how hot, cold, wet, or windy it might be!

Date:

Astronomy

Jul. 14, 2013 Rise Set
Actual Time 5:56 AM MDT 9:27 PM MDT
Civil Twilight 5:18 AM MDT 10:05 PM MDT
Nautical Twilight 4:27 AM MDT 10:56 PM MDT
Astronomical Twilight 3:19 AM MDT 12:02 AM MDT
Moon 12:45 PM MDT (7/14) No Moon Set
Length of Visible Light 16h 47m
Length of Day
15h 31m
Waxing Crescent, 35% of the Moon is Illuminated
Jul 14
Waxing Crescent
Jul 15
First Quarter
Jul 22
Full
Jul 29
Last Quarter
Aug 6
New

Hourly Weather History & Observations

Time (MDT) Temp. Dew Point Humidity Pressure Visibility Wind Dir Wind Speed Gust Speed Precip Events Conditions
12:53 AM 57.9 °F 34.0 °F 41% 30.09 in 10.0 mi Calm Calm - N/A   Clear
1:53 AM 54.0 °F 35.1 °F 49% 30.09 in 10.0 mi North 4.6 mph - N/A   Clear
2:53 AM 54.0 °F 35.1 °F 49% 30.09 in 10.0 mi Calm Calm - N/A   Clear
3:53 AM 51.1 °F 35.1 °F 54% 30.10 in 10.0 mi Calm Calm - N/A   Clear
4:53 AM 48.9 °F 37.0 °F 64% 30.10 in 10.0 mi Calm Calm - N/A   Clear
5:53 AM 50.0 °F 37.0 °F 61% 30.11 in 10.0 mi Calm Calm - N/A   Clear
6:53 AM 48.9 °F 39.0 °F 69% 30.14 in 10.0 mi Calm Calm - N/A   Clear
7:53 AM 54.0 °F 39.9 °F 59% 30.14 in 10.0 mi Calm Calm - N/A   Clear
8:53 AM 59.0 °F 37.9 °F 46% 30.15 in 10.0 mi Calm Calm - N/A   Clear
9:53 AM 63.0 °F 37.0 °F 38% 30.16 in 10.0 mi Calm Calm - N/A   Clear
10:53 AM 66.9 °F 37.0 °F 33% 30.12 in 10.0 mi SW 3.5 mph - N/A   Clear
11:53 AM 73.0 °F 39.0 °F 29% 30.10 in 10.0 mi Variable 3.5 mph - N/A   Clear
12:53 PM 77.0 °F 36.0 °F 23% 30.07 in 10.0 mi Calm Calm - N/A   Clear
1:53 PM 80.1 °F 36.0 °F 20% 30.05 in 10.0 mi East 3.5 mph - N/A   Clear
2:53 PM 84.0 °F 35.1 °F 17% 30.02 in 10.0 mi Variable 4.6 mph - N/A   Clear
3:53 PM 84.9 °F 34.0 °F 16% 30.00 in 10.0 mi Calm Calm - N/A   Clear
4:53 PM 87.1 °F 33.1 °F 15% 29.97 in 10.0 mi Variable 4.6 mph - N/A   Clear
5:53 PM 89.1 °F 28.0 °F 11% 29.95 in 10.0 mi NW 3.5 mph - N/A   Clear
6:53 PM 88.0 °F 28.9 °F 12% 29.93 in 10.0 mi Calm Calm - N/A   Clear
7:53 PM 87.1 °F 30.9 °F 13% 29.91 in 10.0 mi NNW 4.6 mph - N/A   Clear
8:53 PM 82.0 °F 34.0 °F 18% 29.91 in 10.0 mi NNW 5.8 mph - N/A   Clear
9:53 PM 72.0 °F 37.0 °F 28% 29.94 in 10.0 mi NNW 3.5 mph - N/A   Clear
10:53 PM 66.0 °F 37.0 °F 34% 29.96 in 10.0 mi Calm Calm - N/A   Clear
11:53 PM 62.1 °F 37.0 °F 39% 29.96 in 10.0 mi Calm Calm - N/A   Clear